Location: Peebles
(55.6412°N, 3.1714°W)
Time: 22:46:29
(UTC+01:00)

CENTAUR R/B - Pass Details

Date: 21 January 2022
Orbit: 716 x 1471 km, 63.4° (Epoch: 08 May)

Event Time Altitude Azimuth Distance (km) Brightness Sun altitude
Rises 17:22:08 0° 217° (SW) 3,437 6.6 -7.9°
Reaches altitude 10° 17:24:25 10° 215° (SW) 2,589 5.8 -8.2°
Maximum altitude 17:30:27 70° 133° (SE) 1,099 2.7 -9.0°
Enters shadow 17:37:45 10° 52° (NE) 3,112 4.5 -10.0°
